Year,Month,Day,Hour,Minute,Value (Times are PST for temperature in C)
2017,08,16,00,00,15.20
2017,08,16,00,01,15.20
2017,08,16,00,02,15.20
2017,08,16,00,03,15.20
2017,08,16,00,04,15.20
2017,08,16,00,05,15.10
2017,08,16,00,06,15.10
2017,08,16,00,07,15.10
2017,08,16,00,08,15.10
2017,08,16,00,09,15.10
2017,08,16,00,10,15.10
2017,08,16,00,11,15.10
2017,08,16,00,12,15.10
2017,08,16,00,13,15.10
2017,08,16,00,14,15.10
2017,08,16,00,15,15.10
2017,08,16,00,16,15.10
2017,08,16,00,17,15.10
2017,08,16,00,18,15.10
2017,08,16,00,19,15.10
2017,08,16,00,20,15.10
2017,08,16,00,21,15.10
2017,08,16,00,22,15.10
2017,08,16,00,23,15.10
2017,08,16,00,24,15.10
2017,08,16,00,25,15.10
2017,08,16,00,26,15.10
2017,08,16,00,27,15.10
2017,08,16,00,28,15.10
2017,08,16,00,29,15.10
2017,08,16,00,30,15.10
2017,08,16,00,31,15.10
2017,08,16,00,32,15.10
2017,08,16,00,33,15.10
2017,08,16,00,34,15.10
2017,08,16,00,35,15.10
2017,08,16,00,36,15.10
2017,08,16,00,37,15.10
2017,08,16,00,38,15.00
2017,08,16,00,39,15.00
2017,08,16,00,40,15.00
2017,08,16,00,41,15.00
2017,08,16,00,42,15.00
2017,08,16,00,43,14.90
2017,08,16,00,44,14.90
2017,08,16,00,45,14.90
2017,08,16,00,46,14.90
2017,08,16,00,47,14.80
2017,08,16,00,48,14.80
2017,08,16,00,49,14.80
2017,08,16,00,50,14.80
2017,08,16,00,51,14.80
2017,08,16,00,52,14.80
2017,08,16,00,53,14.80
2017,08,16,00,54,14.80
2017,08,16,00,55,14.80
2017,08,16,00,56,14.80
2017,08,16,00,57,14.80
2017,08,16,00,58,14.80
2017,08,16,00,59,14.80
2017,08,16,01,00,14.80
2017,08,16,01,01,14.80
2017,08,16,01,02,14.80
2017,08,16,01,03,14.80
2017,08,16,01,04,14.80
2017,08,16,01,05,14.80
2017,08,16,01,06,14.80
2017,08,16,01,07,14.80
2017,08,16,01,08,14.70
2017,08,16,01,09,14.70
2017,08,16,01,10,14.70
2017,08,16,01,11,14.70
2017,08,16,01,12,14.70
2017,08,16,01,13,14.70
2017,08,16,01,14,14.70
2017,08,16,01,15,14.70
2017,08,16,01,16,14.70
2017,08,16,01,17,14.60
2017,08,16,01,18,14.60
2017,08,16,01,19,14.60
2017,08,16,01,20,14.60
2017,08,16,01,21,14.60
2017,08,16,01,22,14.60
2017,08,16,01,23,14.60
2017,08,16,01,24,14.60
2017,08,16,01,25,14.60
2017,08,16,01,26,14.60
2017,08,16,01,27,14.60
2017,08,16,01,28,14.60
2017,08,16,01,29,14.50
2017,08,16,01,30,14.50
2017,08,16,01,31,14.60
2017,08,16,01,32,14.60
2017,08,16,01,33,14.50
2017,08,16,01,34,14.50
2017,08,16,01,35,14.50
2017,08,16,01,36,14.50
2017,08,16,01,37,14.40
2017,08,16,01,38,14.40
2017,08,16,01,39,14.40
2017,08,16,01,40,14.40
2017,08,16,01,41,14.40
2017,08,16,01,42,14.40
2017,08,16,01,43,14.40
2017,08,16,01,44,14.40
2017,08,16,01,45,14.40
2017,08,16,01,46,14.40
2017,08,16,01,47,14.40
2017,08,16,01,48,14.40
2017,08,16,01,49,14.30
2017,08,16,01,50,14.30
2017,08,16,01,51,14.30
2017,08,16,01,52,14.30
2017,08,16,01,53,14.30
2017,08,16,01,54,14.30
2017,08,16,01,55,14.30
2017,08,16,01,56,14.20
2017,08,16,01,57,14.20
2017,08,16,01,58,14.20
2017,08,16,01,59,14.20
2017,08,16,02,00,14.20
2017,08,16,02,01,14.20
2017,08,16,02,02,14.20
2017,08,16,02,03,14.10
2017,08,16,02,04,14.10
2017,08,16,02,05,14.10
2017,08,16,02,06,14.10
2017,08,16,02,07,14.10
2017,08,16,02,08,14.10
2017,08,16,02,09,14.10
2017,08,16,02,10,14.10
2017,08,16,02,11,14.10
2017,08,16,02,12,14.10
2017,08,16,02,13,14.10
2017,08,16,02,14,14.10
2017,08,16,02,15,14.10
2017,08,16,02,16,14.10
2017,08,16,02,17,14.10
2017,08,16,02,18,14.10
2017,08,16,02,19,14.10
2017,08,16,02,20,14.10
2017,08,16,02,21,14.10
2017,08,16,02,22,14.10
2017,08,16,02,23,14.00
2017,08,16,02,24,14.00
2017,08,16,02,25,14.00
2017,08,16,02,26,14.00
2017,08,16,02,27,13.90
2017,08,16,02,28,13.90
2017,08,16,02,29,13.90
2017,08,16,02,30,13.90
2017,08,16,02,31,13.90
2017,08,16,02,32,13.90
2017,08,16,02,33,13.90
2017,08,16,02,34,13.90
2017,08,16,02,35,13.80
2017,08,16,02,36,13.80
2017,08,16,02,37,13.80
2017,08,16,02,38,13.80
2017,08,16,02,39,13.80
2017,08,16,02,40,13.80
2017,08,16,02,41,13.80
2017,08,16,02,42,13.80
2017,08,16,02,43,13.80
2017,08,16,02,44,13.80
2017,08,16,02,45,13.80
2017,08,16,02,46,13.80
2017,08,16,02,47,13.80
2017,08,16,02,48,13.80
2017,08,16,02,49,13.70
2017,08,16,02,50,13.70
2017,08,16,02,51,13.70
2017,08,16,02,52,13.70
2017,08,16,02,53,13.70
2017,08,16,02,54,13.70
2017,08,16,02,55,13.70
2017,08,16,02,56,13.70
2017,08,16,02,57,13.70
2017,08,16,02,58,13.60
2017,08,16,02,59,13.60
2017,08,16,03,00,13.60
2017,08,16,03,01,13.60
2017,08,16,03,02,13.60
2017,08,16,03,03,13.60
2017,08,16,03,04,13.60
2017,08,16,03,05,13.60
2017,08,16,03,06,13.60
2017,08,16,03,07,13.60
2017,08,16,03,08,13.60
2017,08,16,03,09,13.60
2017,08,16,03,10,13.50
2017,08,16,03,11,13.50
2017,08,16,03,12,13.50
2017,08,16,03,13,13.50
2017,08,16,03,14,13.40
2017,08,16,03,15,13.40
2017,08,16,03,16,13.40
2017,08,16,03,17,13.40
2017,08,16,03,18,13.40
2017,08,16,03,19,13.40
2017,08,16,03,20,13.30
2017,08,16,03,21,13.30
2017,08,16,03,22,13.30
2017,08,16,03,23,13.30
2017,08,16,03,24,13.30
2017,08,16,03,25,13.30
2017,08,16,03,26,13.20
2017,08,16,03,27,13.20
2017,08,16,03,28,13.20
2017,08,16,03,29,13.20
2017,08,16,03,30,13.20
2017,08,16,03,31,13.20
2017,08,16,03,32,13.10
2017,08,16,03,33,13.10
2017,08,16,03,34,13.10
2017,08,16,03,35,13.10
2017,08,16,03,36,13.10
2017,08,16,03,37,13.10
2017,08,16,03,38,13.10
2017,08,16,03,39,13.10
2017,08,16,03,40,13.10
2017,08,16,03,41,13.10
2017,08,16,03,42,13.10
2017,08,16,03,43,13.10
2017,08,16,03,44,13.00
2017,08,16,03,45,13.00
2017,08,16,03,46,13.00
2017,08,16,03,47,13.00
2017,08,16,03,48,13.00
2017,08,16,03,49,13.00
2017,08,16,03,50,13.00
2017,08,16,03,51,13.00
2017,08,16,03,52,12.90
2017,08,16,03,53,12.90
2017,08,16,03,54,12.90
2017,08,16,03,55,12.90
2017,08,16,03,56,12.90
2017,08,16,03,57,12.90
2017,08,16,03,58,12.90
2017,08,16,03,59,12.90
2017,08,16,04,00,12.90
2017,08,16,04,01,12.90
2017,08,16,04,02,12.90
2017,08,16,04,03,12.80
2017,08,16,04,04,12.80
2017,08,16,04,05,12.80
2017,08,16,04,06,12.80
2017,08,16,04,07,12.70
2017,08,16,04,08,12.70
2017,08,16,04,09,12.70
2017,08,16,04,10,12.70
2017,08,16,04,11,12.70
2017,08,16,04,12,12.70
2017,08,16,04,13,12.70
2017,08,16,04,14,12.60
2017,08,16,04,15,12.60
2017,08,16,04,16,12.60
2017,08,16,04,17,12.60
2017,08,16,04,18,12.50
2017,08,16,04,19,12.50
2017,08,16,04,20,12.50
2017,08,16,04,21,12.50
2017,08,16,04,22,12.40
2017,08,16,04,23,12.40
2017,08,16,04,24,12.40
2017,08,16,04,25,12.40
2017,08,16,04,26,12.40
2017,08,16,04,27,12.40
2017,08,16,04,28,12.30
2017,08,16,04,29,12.30
2017,08,16,04,30,12.30
2017,08,16,04,31,12.30
2017,08,16,04,32,12.30
2017,08,16,04,33,12.30
2017,08,16,04,34,12.30
2017,08,16,04,35,12.30
2017,08,16,04,36,12.30
2017,08,16,04,37,12.30
2017,08,16,04,38,12.30
2017,08,16,04,39,12.30
2017,08,16,04,40,12.20
2017,08,16,04,41,12.20
2017,08,16,04,42,12.20
2017,08,16,04,43,12.20
2017,08,16,04,44,12.20
2017,08,16,04,45,12.20
2017,08,16,04,46,12.20
2017,08,16,04,47,12.20
2017,08,16,04,48,12.20
2017,08,16,04,49,12.20
2017,08,16,04,50,12.20
2017,08,16,04,51,12.20
2017,08,16,04,52,12.20
2017,08,16,04,53,12.20
2017,08,16,04,54,12.20
2017,08,16,04,55,12.20
2017,08,16,04,56,12.10
2017,08,16,04,57,12.10
2017,08,16,04,58,12.10
2017,08,16,04,59,12.10
2017,08,16,05,00,12.10
2017,08,16,05,01,12.10
2017,08,16,05,02,12.10
2017,08,16,05,03,12.10
2017,08,16,05,04,12.10
2017,08,16,05,05,12.10
2017,08,16,05,06,12.20
2017,08,16,05,07,12.10
2017,08,16,05,08,12.20
2017,08,16,05,09,12.20
2017,08,16,05,10,12.20
2017,08,16,05,11,12.20
2017,08,16,05,12,12.10
2017,08,16,05,13,12.10
2017,08,16,05,14,12.10
2017,08,16,05,15,12.10
2017,08,16,05,16,12.00
2017,08,16,05,17,12.00
2017,08,16,05,18,12.00
2017,08,16,05,19,12.00
2017,08,16,05,20,12.00
2017,08,16,05,21,11.90
2017,08,16,05,22,11.90
2017,08,16,05,23,11.90
2017,08,16,05,24,11.90
2017,08,16,05,25,11.90
2017,08,16,05,26,11.90
2017,08,16,05,27,11.90
2017,08,16,05,28,11.90
2017,08,16,05,29,11.90
2017,08,16,05,30,11.90
2017,08,16,05,31,11.90
2017,08,16,05,32,11.90
2017,08,16,05,33,11.90
2017,08,16,05,34,11.90
2017,08,16,05,35,11.90
2017,08,16,05,36,11.90
2017,08,16,05,37,11.90
2017,08,16,05,38,11.90
2017,08,16,05,39,11.90
2017,08,16,05,40,11.90
2017,08,16,05,41,12.00
2017,08,16,05,42,12.00
2017,08,16,05,43,12.00
2017,08,16,05,44,12.00
2017,08,16,05,45,12.00
2017,08,16,05,46,12.00
2017,08,16,05,47,12.10
2017,08,16,05,48,12.10
2017,08,16,05,49,12.10
2017,08,16,05,50,12.10
2017,08,16,05,51,12.10
2017,08,16,05,52,12.10
2017,08,16,05,53,12.10
2017,08,16,05,54,12.10
2017,08,16,05,55,12.10
2017,08,16,05,56,12.10
2017,08,16,05,57,12.10
2017,08,16,05,58,12.20
2017,08,16,05,59,12.20
2017,08,16,06,00,12.20
2017,08,16,06,01,12.20
2017,08,16,06,02,12.20
2017,08,16,06,03,12.20
2017,08,16,06,04,12.20
2017,08,16,06,05,12.20
2017,08,16,06,06,12.20
2017,08,16,06,07,12.20
2017,08,16,06,08,12.20
2017,08,16,06,09,12.10
2017,08,16,06,10,12.10
2017,08,16,06,11,12.10
2017,08,16,06,12,12.10
2017,08,16,06,13,12.10
2017,08,16,06,14,12.10
2017,08,16,06,15,12.10
2017,08,16,06,16,12.10
2017,08,16,06,17,12.10
2017,08,16,06,18,12.10
2017,08,16,06,19,12.10
2017,08,16,06,20,12.10
2017,08,16,06,21,12.00
2017,08,16,06,22,12.00
2017,08,16,06,23,12.00
2017,08,16,06,24,12.00
2017,08,16,06,25,11.90
2017,08,16,06,26,11.90
2017,08,16,06,27,11.90
2017,08,16,06,28,12.00
2017,08,16,06,29,12.00
2017,08,16,06,30,12.00
2017,08,16,06,31,12.00
2017,08,16,06,32,12.00
2017,08,16,06,33,12.00
2017,08,16,06,34,12.00
2017,08,16,06,35,12.00
2017,08,16,06,36,12.10
2017,08,16,06,37,12.10
2017,08,16,06,38,12.10
2017,08,16,06,39,12.10
2017,08,16,06,40,12.10
2017,08,16,06,41,12.10
2017,08,16,06,42,12.10
2017,08,16,06,43,12.10
2017,08,16,06,44,12.10
2017,08,16,06,45,12.10
2017,08,16,06,46,12.10
2017,08,16,06,47,12.10
2017,08,16,06,48,12.10
2017,08,16,06,49,12.10
2017,08,16,06,50,12.20
2017,08,16,06,51,12.20
2017,08,16,06,52,12.20
2017,08,16,06,53,12.20
2017,08,16,06,54,12.20
2017,08,16,06,55,12.30
2017,08,16,06,56,12.30
2017,08,16,06,57,12.40
2017,08,16,06,58,12.40
2017,08,16,06,59,12.50
2017,08,16,07,00,12.60
2017,08,16,07,01,12.70
2017,08,16,07,02,12.70
2017,08,16,07,03,12.80
2017,08,16,07,04,12.80
2017,08,16,07,05,12.90
2017,08,16,07,06,12.90
2017,08,16,07,07,13.00
2017,08,16,07,08,13.00
2017,08,16,07,09,13.10
2017,08,16,07,10,13.10
2017,08,16,07,11,13.20
2017,08,16,07,12,13.30
2017,08,16,07,13,13.40
2017,08,16,07,14,13.50
2017,08,16,07,15,13.70
2017,08,16,07,16,13.80
2017,08,16,07,17,13.90
2017,08,16,07,18,14.00
2017,08,16,07,19,14.00
2017,08,16,07,20,14.10
2017,08,16,07,21,14.10
2017,08,16,07,22,14.20
2017,08,16,07,23,14.20
2017,08,16,07,24,14.30
2017,08,16,07,25,14.30
2017,08,16,07,26,14.40
2017,08,16,07,27,14.50
2017,08,16,07,28,14.50
2017,08,16,07,29,14.60
2017,08,16,07,30,14.60
2017,08,16,07,31,14.70
2017,08,16,07,32,14.70
2017,08,16,07,33,14.80
2017,08,16,07,34,14.80
2017,08,16,07,35,14.90
2017,08,16,07,36,14.90
2017,08,16,07,37,15.00
2017,08,16,07,38,15.10
2017,08,16,07,39,15.10
2017,08,16,07,40,15.20
2017,08,16,07,41,15.20
2017,08,16,07,42,15.30
2017,08,16,07,43,15.30
2017,08,16,07,44,15.40
2017,08,16,07,45,15.40
2017,08,16,07,46,15.50
2017,08,16,07,47,15.50
2017,08,16,07,48,15.60
2017,08,16,07,49,15.60
2017,08,16,07,50,15.60
2017,08,16,07,51,15.70
2017,08,16,07,52,15.70
2017,08,16,07,53,15.70
2017,08,16,07,54,15.70
2017,08,16,07,55,15.80
2017,08,16,07,56,15.80
2017,08,16,07,57,15.80
2017,08,16,07,58,15.90
2017,08,16,07,59,15.90
2017,08,16,08,00,16.00
2017,08,16,08,01,16.10
2017,08,16,08,02,16.10
2017,08,16,08,03,16.20
2017,08,16,08,04,16.20
2017,08,16,08,05,16.30
2017,08,16,08,06,16.30
2017,08,16,08,07,16.30
2017,08,16,08,08,16.30
2017,08,16,08,09,16.40
2017,08,16,08,10,16.40
2017,08,16,08,11,16.40
2017,08,16,08,12,16.50
2017,08,16,08,13,16.50
2017,08,16,08,14,16.60
2017,08,16,08,15,16.70
2017,08,16,08,16,16.70
2017,08,16,08,17,16.80
2017,08,16,08,18,16.80
2017,08,16,08,19,16.80
2017,08,16,08,20,16.80
2017,08,16,08,21,16.70
2017,08,16,08,22,16.80
2017,08,16,08,23,16.80
2017,08,16,08,24,16.90
2017,08,16,08,25,16.90
2017,08,16,08,26,17.00
2017,08,16,08,27,17.10
2017,08,16,08,28,17.10
2017,08,16,08,29,17.20
2017,08,16,08,30,17.20
2017,08,16,08,31,17.30
2017,08,16,08,32,17.40
2017,08,16,08,33,17.40
2017,08,16,08,34,17.50
2017,08,16,08,35,17.60
2017,08,16,08,36,17.60
2017,08,16,08,37,17.60
2017,08,16,08,38,17.50
2017,08,16,08,39,17.50
2017,08,16,08,40,17.40
2017,08,16,08,41,17.40
2017,08,16,08,42,17.40
2017,08,16,08,43,17.30
2017,08,16,08,44,17.40
2017,08,16,08,45,17.40
2017,08,16,08,46,17.40
2017,08,16,08,47,17.40
2017,08,16,08,48,17.40
2017,08,16,08,49,17.40
2017,08,16,08,50,17.40
2017,08,16,08,51,17.30
2017,08,16,08,52,17.30
2017,08,16,08,53,17.30
2017,08,16,08,54,17.30
2017,08,16,08,55,17.30
2017,08,16,08,56,17.30
2017,08,16,08,57,17.20
2017,08,16,08,58,17.20
2017,08,16,08,59,17.20
2017,08,16,09,00,17.20
2017,08,16,09,01,17.20
2017,08,16,09,02,17.20
2017,08,16,09,03,17.20
2017,08,16,09,04,17.30
2017,08,16,09,05,17.30
2017,08,16,09,06,17.30
2017,08,16,09,07,17.40
2017,08,16,09,08,17.40
2017,08,16,09,09,17.40
2017,08,16,09,10,17.40
2017,08,16,09,11,17.40
2017,08,16,09,12,17.40
2017,08,16,09,13,17.40
2017,08,16,09,14,17.50
2017,08,16,09,15,17.50
2017,08,16,09,16,17.50
2017,08,16,09,17,17.60
2017,08,16,09,18,17.60
2017,08,16,09,19,17.60
2017,08,16,09,20,17.70
2017,08,16,09,21,17.70
2017,08,16,09,22,17.70
2017,08,16,09,23,17.80
2017,08,16,09,24,17.80
2017,08,16,09,25,17.90
2017,08,16,09,26,17.90
2017,08,16,09,27,18.00
2017,08,16,09,28,18.00
2017,08,16,09,29,18.10
2017,08,16,09,30,18.10
2017,08,16,09,31,18.10
2017,08,16,09,32,18.10
2017,08,16,09,33,18.10
2017,08,16,09,34,18.00
2017,08,16,09,35,17.90
2017,08,16,09,36,17.80
2017,08,16,09,37,17.70
2017,08,16,09,38,17.70
2017,08,16,09,39,17.50
2017,08,16,09,40,17.50
2017,08,16,09,41,17.40
2017,08,16,09,42,17.40
2017,08,16,09,43,17.30
2017,08,16,09,44,17.30
2017,08,16,09,45,17.40
2017,08,16,09,46,17.40
2017,08,16,09,47,17.40
2017,08,16,09,48,17.40
2017,08,16,09,49,17.40
2017,08,16,09,50,17.40
2017,08,16,09,51,17.50
2017,08,16,09,52,17.50
2017,08,16,09,53,17.50
2017,08,16,09,54,17.60
2017,08,16,09,55,17.60
2017,08,16,09,56,17.70
2017,08,16,09,57,17.70
2017,08,16,09,58,17.60
2017,08,16,09,59,17.60
2017,08,16,10,00,17.60
2017,08,16,10,01,17.60
2017,08,16,10,02,17.60
2017,08,16,10,03,17.60
2017,08,16,10,04,17.60
2017,08,16,10,05,17.60
2017,08,16,10,06,17.60
2017,08,16,10,07,17.70
2017,08,16,10,08,17.70
2017,08,16,10,09,17.70
2017,08,16,10,10,17.70
2017,08,16,10,11,17.80
2017,08,16,10,12,17.80
2017,08,16,10,13,17.80
2017,08,16,10,14,17.90
2017,08,16,10,15,18.00
2017,08,16,10,16,18.10
2017,08,16,10,17,18.10
2017,08,16,10,18,18.10
2017,08,16,10,19,18.10
2017,08,16,10,20,18.20
2017,08,16,10,21,18.20
2017,08,16,10,22,18.10
2017,08,16,10,23,18.10
2017,08,16,10,24,18.10
2017,08,16,10,25,18.10
2017,08,16,10,26,18.10
2017,08,16,10,27,18.10
2017,08,16,10,28,18.20
2017,08,16,10,29,18.20
2017,08,16,10,30,18.30
2017,08,16,10,31,18.30
2017,08,16,10,32,18.40
2017,08,16,10,33,18.40
2017,08,16,10,34,18.50
2017,08,16,10,35,18.50
2017,08,16,10,36,18.50
2017,08,16,10,37,18.40
2017,08,16,10,38,18.30
2017,08,16,10,39,18.30
2017,08,16,10,40,18.30
2017,08,16,10,41,18.30
2017,08,16,10,42,18.30
2017,08,16,10,43,18.30
2017,08,16,10,44,18.30
2017,08,16,10,45,18.30
2017,08,16,10,46,18.30
2017,08,16,10,47,18.30
2017,08,16,10,48,18.40
2017,08,16,10,49,18.40
2017,08,16,10,50,18.40
2017,08,16,10,51,18.40
2017,08,16,10,52,18.50
2017,08,16,10,53,18.50
2017,08,16,10,54,18.60
2017,08,16,10,55,18.60
2017,08,16,10,56,18.70
2017,08,16,10,57,18.70
2017,08,16,10,58,18.70
2017,08,16,10,59,18.70
2017,08,16,11,00,18.70
2017,08,16,11,01,18.70
2017,08,16,11,02,18.70
2017,08,16,11,03,18.70
2017,08,16,11,04,18.70
2017,08,16,11,05,18.70
2017,08,16,11,06,18.70
2017,08,16,11,07,18.70
2017,08,16,11,08,18.70
2017,08,16,11,09,18.80
2017,08,16,11,10,18.80
2017,08,16,11,11,18.80
2017,08,16,11,12,18.90
2017,08,16,11,13,18.90
2017,08,16,11,14,18.90
2017,08,16,11,15,18.90
2017,08,16,11,16,19.00
2017,08,16,11,17,19.00
2017,08,16,11,18,19.00
2017,08,16,11,19,19.10
2017,08,16,11,20,19.10
2017,08,16,11,21,19.10
2017,08,16,11,22,19.20
2017,08,16,11,23,19.20
2017,08,16,11,24,19.30
2017,08,16,11,25,19.30
2017,08,16,11,26,19.40
2017,08,16,11,27,19.40
2017,08,16,11,28,19.50
2017,08,16,11,29,19.50
2017,08,16,11,30,19.60
2017,08,16,11,31,19.60
2017,08,16,11,32,19.60
2017,08,16,11,33,19.70
2017,08,16,11,34,19.80
2017,08,16,11,35,19.90
2017,08,16,11,36,19.90
2017,08,16,11,37,19.80
2017,08,16,11,38,19.80
2017,08,16,11,39,19.80
2017,08,16,11,40,19.70
2017,08,16,11,41,19.70
2017,08,16,11,42,19.70
2017,08,16,11,43,19.70
2017,08,16,11,44,19.70
2017,08,16,11,45,19.70
2017,08,16,11,46,19.70
2017,08,16,11,47,19.70
2017,08,16,11,48,19.70
2017,08,16,11,49,19.70
2017,08,16,11,50,19.70
2017,08,16,11,51,19.70
2017,08,16,11,52,19.70
2017,08,16,11,53,19.70
2017,08,16,11,54,19.60
2017,08,16,11,55,19.60
2017,08,16,11,56,19.70
2017,08,16,11,57,19.70
2017,08,16,11,58,19.70
2017,08,16,11,59,19.70
2017,08,16,12,00,19.70
2017,08,16,12,01,19.80
2017,08,16,12,02,19.80
2017,08,16,12,03,19.90
2017,08,16,12,04,20.00
2017,08,16,12,05,20.10
2017,08,16,12,06,20.20
2017,08,16,12,07,20.10
2017,08,16,12,08,20.00
2017,08,16,12,09,19.80
2017,08,16,12,10,19.80
2017,08,16,12,11,19.70
2017,08,16,12,12,19.70
2017,08,16,12,13,19.70
2017,08,16,12,14,19.80
2017,08,16,12,15,19.80
2017,08,16,12,16,19.70
2017,08,16,12,17,19.70
2017,08,16,12,18,19.60
2017,08,16,12,19,19.60
2017,08,16,12,20,19.60
2017,08,16,12,21,19.60
2017,08,16,12,22,19.70
2017,08,16,12,23,19.70
2017,08,16,12,24,19.70
2017,08,16,12,25,19.70
2017,08,16,12,26,19.70
2017,08,16,12,27,19.70
2017,08,16,12,28,19.70
2017,08,16,12,29,19.70
2017,08,16,12,30,19.70
2017,08,16,12,31,19.60
2017,08,16,12,32,19.60
2017,08,16,12,33,19.70
2017,08,16,12,34,19.70
2017,08,16,12,35,19.70
2017,08,16,12,36,19.70
2017,08,16,12,37,19.70
2017,08,16,12,38,19.60
2017,08,16,12,39,19.60
2017,08,16,12,40,19.60
2017,08,16,12,41,19.60
2017,08,16,12,42,19.50
2017,08,16,12,43,19.50
2017,08,16,12,44,19.50
2017,08,16,12,45,19.50
2017,08,16,12,46,19.50
2017,08,16,12,47,19.50
2017,08,16,12,48,19.60
2017,08,16,12,49,19.60
2017,08,16,12,50,19.60
2017,08,16,12,51,19.60
2017,08,16,12,52,19.60
2017,08,16,12,53,19.60
2017,08,16,12,54,19.70
2017,08,16,12,55,19.80
2017,08,16,12,56,20.00
2017,08,16,12,57,20.10
2017,08,16,12,58,20.20
2017,08,16,12,59,20.20
2017,08,16,13,00,20.30
2017,08,16,13,01,20.40
2017,08,16,13,02,20.40
2017,08,16,13,03,20.40
2017,08,16,13,04,20.40
2017,08,16,13,05,20.40
2017,08,16,13,06,20.50
2017,08,16,13,07,20.50
2017,08,16,13,08,20.60
2017,08,16,13,09,20.60
2017,08,16,13,10,20.70
2017,08,16,13,11,20.70
2017,08,16,13,12,20.80
2017,08,16,13,13,20.80
2017,08,16,13,14,20.80
2017,08,16,13,15,20.90
2017,08,16,13,16,20.90
2017,08,16,13,17,20.90
2017,08,16,13,18,20.90
2017,08,16,13,19,20.90
2017,08,16,13,20,20.90
2017,08,16,13,21,21.00
2017,08,16,13,22,21.00
2017,08,16,13,23,21.00
2017,08,16,13,24,21.00
2017,08,16,13,25,21.10
2017,08,16,13,26,21.20
2017,08,16,13,27,21.30
2017,08,16,13,28,21.40
2017,08,16,13,29,21.40
2017,08,16,13,30,21.50
2017,08,16,13,31,21.50
2017,08,16,13,32,21.50
2017,08,16,13,33,21.60
2017,08,16,13,34,21.60
2017,08,16,13,35,21.60
2017,08,16,13,36,21.60
2017,08,16,13,37,21.60
2017,08,16,13,38,21.60
2017,08,16,13,39,21.60
2017,08,16,13,40,21.60
2017,08,16,13,41,21.70
2017,08,16,13,42,21.70
2017,08,16,13,43,21.70
2017,08,16,13,44,21.70
2017,08,16,13,45,21.70
2017,08,16,13,46,21.80
2017,08,16,13,47,21.80
2017,08,16,13,48,21.80
2017,08,16,13,49,21.80
2017,08,16,13,50,21.80
2017,08,16,13,51,21.80
2017,08,16,13,52,21.80
2017,08,16,13,53,21.80
2017,08,16,13,54,21.90
2017,08,16,13,55,22.00
2017,08,16,13,56,22.10
2017,08,16,13,57,22.30
2017,08,16,13,58,22.40
2017,08,16,13,59,22.60
2017,08,16,14,00,22.70
2017,08,16,14,01,22.70
2017,08,16,14,02,22.70
2017,08,16,14,03,22.70
2017,08,16,14,04,22.80
2017,08,16,14,05,22.90
2017,08,16,14,06,23.00
2017,08,16,14,07,23.10
2017,08,16,14,08,23.20
2017,08,16,14,09,23.20
2017,08,16,14,10,23.20
2017,08,16,14,11,23.10
2017,08,16,14,12,23.10
2017,08,16,14,13,23.30
2017,08,16,14,14,23.40
2017,08,16,14,15,23.50
2017,08,16,14,16,23.40
2017,08,16,14,17,23.40
2017,08,16,14,18,23.40
2017,08,16,14,19,23.40
2017,08,16,14,20,23.50
2017,08,16,14,21,23.60
2017,08,16,14,22,23.60
2017,08,16,14,23,23.60
2017,08,16,14,24,23.50
2017,08,16,14,25,23.30
2017,08,16,14,26,23.30
2017,08,16,14,27,23.20
2017,08,16,14,28,23.10
2017,08,16,14,29,23.10
2017,08,16,14,30,23.10
2017,08,16,14,31,23.10
2017,08,16,14,32,23.10
2017,08,16,14,33,23.20
2017,08,16,14,34,23.20
2017,08,16,14,35,23.10
2017,08,16,14,36,23.00
2017,08,16,14,37,22.90
2017,08,16,14,38,22.90
2017,08,16,14,39,22.80
2017,08,16,14,40,22.80
2017,08,16,14,41,22.80
2017,08,16,14,42,22.80
2017,08,16,14,43,22.90
2017,08,16,14,44,23.00
2017,08,16,14,45,23.20
2017,08,16,14,46,23.20
2017,08,16,14,47,23.30
2017,08,16,14,48,23.40
2017,08,16,14,49,23.50
2017,08,16,14,50,23.50
2017,08,16,14,51,23.50
2017,08,16,14,52,23.60
2017,08,16,14,53,23.60
2017,08,16,14,54,23.70
2017,08,16,14,55,23.70
2017,08,16,14,56,23.70
2017,08,16,14,57,23.60
2017,08,16,14,58,23.50
2017,08,16,14,59,23.40
2017,08,16,15,00,23.30
2017,08,16,15,01,23.40
2017,08,16,15,02,23.50
2017,08,16,15,03,23.60
2017,08,16,15,04,23.80
2017,08,16,15,05,23.80
2017,08,16,15,06,23.80
2017,08,16,15,07,23.80
2017,08,16,15,08,23.90
2017,08,16,15,09,24.00
2017,08,16,15,10,24.10
2017,08,16,15,11,24.20
2017,08,16,15,12,24.10
2017,08,16,15,13,24.10
2017,08,16,15,14,24.00
2017,08,16,15,15,23.90
2017,08,16,15,16,23.80
2017,08,16,15,17,23.70
2017,08,16,15,18,23.60
2017,08,16,15,19,23.60
2017,08,16,15,20,23.50
2017,08,16,15,21,23.60
2017,08,16,15,22,23.50
2017,08,16,15,23,23.50
2017,08,16,15,24,23.40
2017,08,16,15,25,23.30
2017,08,16,15,26,23.30
2017,08,16,15,27,23.40
2017,08,16,15,28,23.50
2017,08,16,15,29,23.60
2017,08,16,15,30,23.70
2017,08,16,15,31,23.70
2017,08,16,15,32,23.70
2017,08,16,15,33,23.70
2017,08,16,15,34,23.70
2017,08,16,15,35,23.70
2017,08,16,15,36,23.70
2017,08,16,15,37,23.60
2017,08,16,15,38,23.60
2017,08,16,15,39,23.60
2017,08,16,15,40,23.60
2017,08,16,15,41,23.60
2017,08,16,15,42,23.60
2017,08,16,15,43,23.70
2017,08,16,15,44,23.70
2017,08,16,15,45,23.70
2017,08,16,15,46,23.70
2017,08,16,15,47,23.80
2017,08,16,15,48,23.80
2017,08,16,15,49,23.90
2017,08,16,15,50,24.10
2017,08,16,15,51,24.20
2017,08,16,15,52,24.20
2017,08,16,15,53,24.20
2017,08,16,15,54,24.20
2017,08,16,15,55,24.10
2017,08,16,15,56,24.10
2017,08,16,15,57,24.00
2017,08,16,15,58,23.90
2017,08,16,15,59,23.90
2017,08,16,16,00,23.90
2017,08,16,16,01,24.00
2017,08,16,16,02,24.00
2017,08,16,16,03,24.00
2017,08,16,16,04,23.90
2017,08,16,16,05,23.90
2017,08,16,16,06,24.00
2017,08,16,16,07,24.00
2017,08,16,16,08,23.90
2017,08,16,16,09,23.80
2017,08,16,16,10,23.80
2017,08,16,16,11,23.70
2017,08,16,16,12,23.70
2017,08,16,16,13,23.70
2017,08,16,16,14,23.70
2017,08,16,16,15,23.70
2017,08,16,16,16,23.80
2017,08,16,16,17,23.70
2017,08,16,16,18,23.70
2017,08,16,16,19,23.70
2017,08,16,16,20,23.70
2017,08,16,16,21,23.80
2017,08,16,16,22,23.90
2017,08,16,16,23,23.90
2017,08,16,16,24,24.00
2017,08,16,16,25,24.10
2017,08,16,16,26,24.10
2017,08,16,16,27,24.10
2017,08,16,16,28,24.20
2017,08,16,16,29,24.20
2017,08,16,16,30,24.30
2017,08,16,16,31,24.30
2017,08,16,16,32,24.40
2017,08,16,16,33,24.50
2017,08,16,16,34,24.60
2017,08,16,16,35,24.50
2017,08,16,16,36,24.50
2017,08,16,16,37,24.40
2017,08,16,16,38,24.40
2017,08,16,16,39,24.40
2017,08,16,16,40,24.50
2017,08,16,16,41,24.50
2017,08,16,16,42,24.50
2017,08,16,16,43,24.60
2017,08,16,16,44,24.60
2017,08,16,16,45,24.60
2017,08,16,16,46,24.60
2017,08,16,16,47,24.60
2017,08,16,16,48,24.60
2017,08,16,16,49,24.60
2017,08,16,16,50,24.40
2017,08,16,16,51,24.20
2017,08,16,16,52,24.00
2017,08,16,16,53,23.90
2017,08,16,16,54,23.90
2017,08,16,16,55,24.00
2017,08,16,16,56,24.00
2017,08,16,16,57,24.10
2017,08,16,16,58,24.10
2017,08,16,16,59,24.10
2017,08,16,17,00,24.20
2017,08,16,17,01,24.20
2017,08,16,17,02,24.20
2017,08,16,17,03,24.20
2017,08,16,17,04,24.20
2017,08,16,17,05,24.10
2017,08,16,17,06,24.10
2017,08,16,17,07,24.10
2017,08,16,17,08,24.10
2017,08,16,17,09,24.10
2017,08,16,17,10,24.00
2017,08,16,17,11,23.90
2017,08,16,17,12,23.80
2017,08,16,17,13,23.70
2017,08,16,17,14,23.60
2017,08,16,17,15,23.50
2017,08,16,17,16,23.40
2017,08,16,17,17,23.40
2017,08,16,17,18,23.40
2017,08,16,17,19,23.50